Starlink 4489

operational
NORAD ID: 53542 Int'l Des: 2022-101 Owner: SPXS Country: US Constellation: starlink
LEOCIRCULAR

Starlink 4489について

説明を読み込み中...

リアルタイム位置

3D地球を読み込み中...

次回通過

高度履歴

Altitude vs Time

uPlot chart will show altitude changes over time

軌道要素

1 53542U 22101R 25304.26273061 -.00000441 00000-0 -96270-5 0 9996
2 53542 53.2190 285.1455 0001552 97.1615 262.9554 15.08832110177459
Epoch: Oct 31, 2025 • Age: 14 hours

現在のステータス

高度 552.2 km
速度 7.59 km/s
衛星直下点 -36.47°S, 155.12°E
打ち上げ日 Aug 19, 2022
運用期間 3.2 years
タイプ internet

技術仕様

分類 Payload
質量 300.00 kg
乾燥質量 290.00 kg
総質量 300.00 kg
長さ 0.20 m
直径 2.80 m
スパン 9.00 m
形状 Box + pan
製造者 SPXS
バスタイプ Starlink
フェーズステータス In Orbit
所有者/国 SPXS/US

大規模コンステレーション

Loading constellations...